Year,Month,Day,Hour,Minute,Value (Times are PST for windgust in km/hr)
2016,07,08,00,00,25.70
2016,07,08,00,01,20.90
2016,07,08,00,02,20.90
2016,07,08,00,03,19.30
2016,07,08,00,04,27.40
2016,07,08,00,05,17.70
2016,07,08,00,06,22.50
2016,07,08,00,07,17.70
2016,07,08,00,08,17.70
2016,07,08,00,09,17.70
2016,07,08,00,10,22.50
2016,07,08,00,11,16.10
2016,07,08,00,12,22.50
2016,07,08,00,13,12.90
2016,07,08,00,14,25.70
2016,07,08,00,15,20.90
2016,07,08,00,16,16.10
2016,07,08,00,17,17.70
2016,07,08,00,18,14.50
2016,07,08,00,19,16.10
2016,07,08,00,20,20.90
2016,07,08,00,21,19.30
2016,07,08,00,22,19.30
2016,07,08,00,23,12.90
2016,07,08,00,24,11.30
2016,07,08,00,25,11.30
2016,07,08,00,26,17.70
2016,07,08,00,27,20.90
2016,07,08,00,28,16.10
2016,07,08,00,29,14.50
2016,07,08,00,30,17.70
2016,07,08,00,31,17.70
2016,07,08,00,32,24.20
2016,07,08,00,33,30.60
2016,07,08,00,34,24.20
2016,07,08,00,35,20.90
2016,07,08,00,36,12.90
2016,07,08,00,37,14.50
2016,07,08,00,38,16.10
2016,07,08,00,39,16.10
2016,07,08,00,40,22.50
2016,07,08,00,41,17.70
2016,07,08,00,42,22.50
2016,07,08,00,43,16.10
2016,07,08,00,44,22.50
2016,07,08,00,45,17.70
2016,07,08,00,46,19.30
2016,07,08,00,47,14.50
2016,07,08,00,48,9.60
2016,07,08,00,49,24.20
2016,07,08,00,50,22.50
2016,07,08,00,51,22.50
2016,07,08,00,52,22.50
2016,07,08,00,53,14.50
2016,07,08,00,54,20.90
2016,07,08,00,55,19.30
2016,07,08,00,56,20.90
2016,07,08,00,57,22.50
2016,07,08,00,58,19.30
2016,07,08,00,59,22.50
2016,07,08,01,00,20.90
2016,07,08,01,01,22.50
2016,07,08,01,02,19.30
2016,07,08,01,03,14.50
2016,07,08,01,04,19.30
2016,07,08,01,05,14.50
2016,07,08,01,06,12.90
2016,07,08,01,07,14.50
2016,07,08,01,08,16.10
2016,07,08,01,09,14.50
2016,07,08,01,10,12.90
2016,07,08,01,11,12.90
2016,07,08,01,12,16.10
2016,07,08,01,13,14.50
2016,07,08,01,14,16.10
2016,07,08,01,15,20.90
2016,07,08,01,16,20.90
2016,07,08,01,17,24.20
2016,07,08,01,18,19.30
2016,07,08,01,19,20.90
2016,07,08,01,20,19.30
2016,07,08,01,21,27.40
2016,07,08,01,22,22.50
2016,07,08,01,23,14.50
2016,07,08,01,24,16.10
2016,07,08,01,25,27.40
2016,07,08,01,26,25.70
2016,07,08,01,27,20.90
2016,07,08,01,28,17.70
2016,07,08,01,29,20.90
2016,07,08,01,30,22.50
2016,07,08,01,31,22.50
2016,07,08,01,32,17.70
2016,07,08,01,33,24.20
2016,07,08,01,34,22.50
2016,07,08,01,35,19.30
2016,07,08,01,36,14.50
2016,07,08,01,37,24.20
2016,07,08,01,38,16.10
2016,07,08,01,39,19.30
2016,07,08,01,40,17.70
2016,07,08,01,41,20.90
2016,07,08,01,42,17.70
2016,07,08,01,43,14.50
2016,07,08,01,44,17.70
2016,07,08,01,45,16.10
2016,07,08,01,46,14.50
2016,07,08,01,47,19.30
2016,07,08,01,48,22.50
2016,07,08,01,49,22.50
2016,07,08,01,50,16.10
2016,07,08,01,51,16.10
2016,07,08,01,52,19.30
2016,07,08,01,53,16.10
2016,07,08,01,54,17.70
2016,07,08,01,55,16.10
2016,07,08,01,56,20.90
2016,07,08,01,57,19.30
2016,07,08,01,58,16.10
2016,07,08,01,59,16.10
2016,07,08,02,00,14.50
2016,07,08,02,01,16.10
2016,07,08,02,02,17.70
2016,07,08,02,03,17.70
2016,07,08,02,04,11.30
2016,07,08,02,05,22.50
2016,07,08,02,06,20.90
2016,07,08,02,07,22.50
2016,07,08,02,08,16.10
2016,07,08,02,09,11.30
2016,07,08,02,10,16.10
2016,07,08,02,11,14.50
2016,07,08,02,12,12.90
2016,07,08,02,13,22.50
2016,07,08,02,14,22.50
2016,07,08,02,15,14.50
2016,07,08,02,16,22.50
2016,07,08,02,17,27.40
2016,07,08,02,18,19.30
2016,07,08,02,19,20.90
2016,07,08,02,20,19.30
2016,07,08,02,21,22.50
2016,07,08,02,22,19.30
2016,07,08,02,23,17.70
2016,07,08,02,24,22.50
2016,07,08,02,25,19.30
2016,07,08,02,26,25.70
2016,07,08,02,27,22.50
2016,07,08,02,28,19.30
2016,07,08,02,29,17.70
2016,07,08,02,30,16.10
2016,07,08,02,31,12.90
2016,07,08,02,32,11.30
2016,07,08,02,33,16.10
2016,07,08,02,34,25.70
2016,07,08,02,35,14.50
2016,07,08,02,36,14.50
2016,07,08,02,37,12.90
2016,07,08,02,38,16.10
2016,07,08,02,39,11.30
2016,07,08,02,40,22.50
2016,07,08,02,41,17.70
2016,07,08,02,42,17.70
2016,07,08,02,43,20.90
2016,07,08,02,44,19.30
2016,07,08,02,45,20.90
2016,07,08,02,46,16.10
2016,07,08,02,47,20.90
2016,07,08,02,48,16.10
2016,07,08,02,49,17.70
2016,07,08,02,50,17.70
2016,07,08,02,51,14.50
2016,07,08,02,52,12.90
2016,07,08,02,53,12.90
2016,07,08,02,54,24.20
2016,07,08,02,55,17.70
2016,07,08,02,56,19.30
2016,07,08,02,57,16.10
2016,07,08,02,58,14.50
2016,07,08,02,59,14.50
2016,07,08,03,00,16.10
2016,07,08,03,01,14.50
2016,07,08,03,02,12.90
2016,07,08,03,03,11.30
2016,07,08,03,04,12.90
2016,07,08,03,05,12.90
2016,07,08,03,06,9.60
2016,07,08,03,07,11.30
2016,07,08,03,08,11.30
2016,07,08,03,09,11.30
2016,07,08,03,10,12.90
2016,07,08,03,11,14.50
2016,07,08,03,12,14.50
2016,07,08,03,13,14.50
2016,07,08,03,14,12.90
2016,07,08,03,15,9.60
2016,07,08,03,16,8.10
2016,07,08,03,17,11.30
2016,07,08,03,18,8.10
2016,07,08,03,19,14.50
2016,07,08,03,20,14.50
2016,07,08,03,21,12.90
2016,07,08,03,22,12.90
2016,07,08,03,23,14.50
2016,07,08,03,24,12.90
2016,07,08,03,25,12.90
2016,07,08,03,26,19.30
2016,07,08,03,27,8.10
2016,07,08,03,28,14.50
2016,07,08,03,29,11.30
2016,07,08,03,30,6.40
2016,07,08,03,31,4.80
2016,07,08,03,32,6.40
2016,07,08,03,33,9.60
2016,07,08,03,34,8.10
2016,07,08,03,35,9.60
2016,07,08,03,36,11.30
2016,07,08,03,37,6.40
2016,07,08,03,38,4.80
2016,07,08,03,39,6.40
2016,07,08,03,40,4.80
2016,07,08,03,41,3.20
2016,07,08,03,42,3.20
2016,07,08,03,43,4.80
2016,07,08,03,44,4.80
2016,07,08,03,45,4.80
2016,07,08,03,46,3.20
2016,07,08,03,47,8.10
2016,07,08,03,48,8.10
2016,07,08,03,49,6.40
2016,07,08,03,50,4.80
2016,07,08,03,51,6.40
2016,07,08,03,52,8.10
2016,07,08,03,53,9.60
2016,07,08,03,54,8.10
2016,07,08,03,55,8.10
2016,07,08,03,56,12.90
2016,07,08,03,57,11.30
2016,07,08,03,58,14.50
2016,07,08,03,59,11.30
2016,07,08,04,00,11.30
2016,07,08,04,01,9.60
2016,07,08,04,02,11.30
2016,07,08,04,03,6.40
2016,07,08,04,04,8.10
2016,07,08,04,05,8.10
2016,07,08,04,06,8.10
2016,07,08,04,07,8.10
2016,07,08,04,08,9.60
2016,07,08,04,09,12.90
2016,07,08,04,10,12.90
2016,07,08,04,11,11.30
2016,07,08,04,12,12.90
2016,07,08,04,13,8.10
2016,07,08,04,14,6.40
2016,07,08,04,15,12.90
2016,07,08,04,16,8.10
2016,07,08,04,17,8.10
2016,07,08,04,18,8.10
2016,07,08,04,19,8.10
2016,07,08,04,20,6.40
2016,07,08,04,21,6.40
2016,07,08,04,22,12.90
2016,07,08,04,23,9.60
2016,07,08,04,24,6.40
2016,07,08,04,25,11.30
2016,07,08,04,26,8.10
2016,07,08,04,27,4.80
2016,07,08,04,28,6.40
2016,07,08,04,29,6.40
2016,07,08,04,30,9.60
2016,07,08,04,31,4.80
2016,07,08,04,32,6.40
2016,07,08,04,33,3.20
2016,07,08,04,34,4.80
2016,07,08,04,35,4.80
2016,07,08,04,36,4.80
2016,07,08,04,37,4.80
2016,07,08,04,38,4.80
2016,07,08,04,39,3.20
2016,07,08,04,40,6.40
2016,07,08,04,41,4.80
2016,07,08,04,42,8.10
2016,07,08,04,43,6.40
2016,07,08,04,44,6.40
2016,07,08,04,45,4.80
2016,07,08,04,46,1.60
2016,07,08,04,47,3.20
2016,07,08,04,48,4.80
2016,07,08,04,49,6.40
2016,07,08,04,50,4.80
2016,07,08,04,51,6.40
2016,07,08,04,52,3.20
2016,07,08,04,53,3.20
2016,07,08,04,54,3.20
2016,07,08,04,55,1.60
2016,07,08,04,56,1.60
2016,07,08,04,57,1.60
2016,07,08,04,58,1.60
2016,07,08,04,59,1.60
2016,07,08,05,00,1.60
2016,07,08,05,22,1.60
2016,07,08,05,23,3.20
2016,07,08,05,24,4.80
2016,07,08,05,25,1.60
2016,07,08,05,26,1.60
2016,07,08,05,28,1.60
2016,07,08,05,29,3.20
2016,07,08,05,30,1.60
2016,07,08,05,31,1.60
2016,07,08,05,32,1.60
2016,07,08,05,33,1.60
2016,07,08,05,34,3.20
2016,07,08,05,35,3.20
2016,07,08,05,36,1.60
2016,07,08,05,37,1.60
2016,07,08,05,38,1.60
2016,07,08,05,39,1.60
2016,07,08,05,40,6.40
2016,07,08,05,41,4.80
2016,07,08,05,42,4.80
2016,07,08,05,43,3.20
2016,07,08,05,44,1.60
2016,07,08,05,45,1.60
2016,07,08,05,46,1.60
2016,07,08,05,47,3.20
2016,07,08,05,48,4.80
2016,07,08,05,49,3.20
2016,07,08,05,50,4.80
2016,07,08,05,51,6.40
2016,07,08,05,52,6.40
2016,07,08,05,53,4.80
2016,07,08,05,54,4.80
2016,07,08,05,55,4.80
2016,07,08,05,56,3.20
2016,07,08,05,57,3.20
2016,07,08,05,58,3.20
2016,07,08,05,59,1.60
2016,07,08,06,00,1.60
2016,07,08,06,01,1.60
2016,07,08,06,02,1.60
2016,07,08,06,03,1.60
2016,07,08,06,04,1.60
2016,07,08,06,05,1.60
2016,07,08,06,06,3.20
2016,07,08,06,07,3.20
2016,07,08,06,08,4.80
2016,07,08,06,09,4.80
2016,07,08,06,10,3.20
2016,07,08,06,11,3.20
2016,07,08,06,12,3.20
2016,07,08,06,13,3.20
2016,07,08,06,14,3.20
2016,07,08,06,15,1.60
2016,07,08,06,16,3.20
2016,07,08,06,17,3.20
2016,07,08,06,18,3.20
2016,07,08,06,19,3.20
2016,07,08,06,20,1.60
2016,07,08,06,21,1.60
2016,07,08,06,22,1.60
2016,07,08,06,23,1.60
2016,07,08,06,24,3.20
2016,07,08,06,25,1.60
2016,07,08,06,26,1.60
2016,07,08,06,28,3.20
2016,07,08,06,29,3.20
2016,07,08,06,30,3.20
2016,07,08,06,31,1.60
2016,07,08,06,32,1.60
2016,07,08,06,33,3.20
2016,07,08,06,34,3.20
2016,07,08,06,35,1.60
2016,07,08,06,36,1.60
2016,07,08,06,43,1.60
2016,07,08,06,44,1.60
2016,07,08,06,45,1.60
2016,07,08,06,46,1.60
2016,07,08,06,47,1.60
2016,07,08,06,48,1.60
2016,07,08,06,49,1.60
2016,07,08,06,50,3.20
2016,07,08,06,51,1.60
2016,07,08,06,52,1.60
2016,07,08,06,53,1.60
2016,07,08,06,54,1.60
2016,07,08,06,55,1.60
2016,07,08,06,56,1.60
2016,07,08,07,09,1.60
2016,07,08,07,11,1.60
2016,07,08,07,12,1.60
2016,07,08,07,13,1.60
2016,07,08,07,14,1.60
2016,07,08,07,17,1.60
2016,07,08,07,19,1.60
2016,07,08,07,21,3.20
2016,07,08,07,22,1.60
2016,07,08,07,23,3.20
2016,07,08,07,24,1.60
2016,07,08,07,26,1.60
2016,07,08,07,27,1.60
2016,07,08,07,28,1.60
2016,07,08,07,29,1.60
2016,07,08,07,30,3.20
2016,07,08,07,31,1.60
2016,07,08,07,32,1.60
2016,07,08,07,33,1.60
2016,07,08,07,34,1.60
2016,07,08,07,35,1.60
2016,07,08,07,36,1.60
2016,07,08,07,39,1.60
2016,07,08,07,40,3.20
2016,07,08,07,41,3.20
2016,07,08,07,42,3.20
2016,07,08,07,43,1.60
2016,07,08,07,44,1.60
2016,07,08,07,45,3.20
2016,07,08,07,46,1.60
2016,07,08,07,47,1.60
2016,07,08,07,48,3.20
2016,07,08,07,49,4.80
2016,07,08,07,50,4.80
2016,07,08,07,51,3.20
2016,07,08,07,52,3.20
2016,07,08,07,53,3.20
2016,07,08,07,54,4.80
2016,07,08,07,55,3.20
2016,07,08,07,56,3.20
2016,07,08,07,57,3.20
2016,07,08,07,58,6.40
2016,07,08,07,59,4.80
2016,07,08,08,00,6.40
2016,07,08,08,01,6.40
2016,07,08,08,02,6.40
2016,07,08,08,03,6.40
2016,07,08,08,04,3.20
2016,07,08,08,05,3.20
2016,07,08,08,06,4.80
2016,07,08,08,07,4.80
2016,07,08,08,08,3.20
2016,07,08,08,09,4.80
2016,07,08,08,10,4.80
2016,07,08,08,11,6.40
2016,07,08,08,12,6.40
2016,07,08,08,13,6.40
2016,07,08,08,14,11.30
2016,07,08,08,15,8.10
2016,07,08,08,16,8.10
2016,07,08,08,17,6.40
2016,07,08,08,18,6.40
2016,07,08,08,19,4.80
2016,07,08,08,20,4.80
2016,07,08,08,21,6.40
2016,07,08,08,22,6.40
2016,07,08,08,23,8.10
2016,07,08,08,24,12.90
2016,07,08,08,25,12.90
2016,07,08,08,26,16.10
2016,07,08,08,27,12.90
2016,07,08,08,28,8.10
2016,07,08,08,29,12.90
2016,07,08,08,30,8.10
2016,07,08,08,31,11.30
2016,07,08,08,32,9.60
2016,07,08,08,33,12.90
2016,07,08,08,34,11.30
2016,07,08,08,35,9.60
2016,07,08,08,36,8.10
2016,07,08,08,37,11.30
2016,07,08,08,38,12.90
2016,07,08,08,39,11.30
2016,07,08,08,40,14.50
2016,07,08,08,41,11.30
2016,07,08,08,42,11.30
2016,07,08,08,43,11.30
2016,07,08,08,44,12.90
2016,07,08,08,45,12.90
2016,07,08,08,46,16.10
2016,07,08,08,47,16.10
2016,07,08,08,48,14.50
2016,07,08,08,49,11.30
2016,07,08,08,50,14.50
2016,07,08,08,51,16.10
2016,07,08,08,52,11.30
2016,07,08,08,53,11.30
2016,07,08,08,54,12.90
2016,07,08,08,55,12.90
2016,07,08,08,56,11.30
2016,07,08,08,57,12.90
2016,07,08,08,58,12.90
2016,07,08,08,59,9.60
2016,07,08,09,00,11.30
2016,07,08,09,01,11.30
2016,07,08,09,02,12.90
2016,07,08,09,03,9.60
2016,07,08,09,04,12.90
2016,07,08,09,05,17.70
2016,07,08,09,06,16.10
2016,07,08,09,07,19.30
2016,07,08,09,08,9.60
2016,07,08,09,09,16.10
2016,07,08,09,10,12.90
2016,07,08,09,11,14.50
2016,07,08,09,12,9.60
2016,07,08,09,13,14.50
2016,07,08,09,14,16.10
2016,07,08,09,15,16.10
2016,07,08,09,16,14.50
2016,07,08,09,17,14.50
2016,07,08,09,18,14.50
2016,07,08,09,19,12.90
2016,07,08,09,20,8.10
2016,07,08,09,21,12.90
2016,07,08,09,22,16.10
2016,07,08,09,23,12.90
2016,07,08,09,24,14.50
2016,07,08,09,25,11.30
2016,07,08,09,26,12.90
2016,07,08,09,27,11.30
2016,07,08,09,28,16.10
2016,07,08,09,29,11.30
2016,07,08,09,30,12.90
2016,07,08,09,31,16.10
2016,07,08,09,32,17.70
2016,07,08,09,33,11.30
2016,07,08,09,34,17.70
2016,07,08,09,35,14.50
2016,07,08,09,36,12.90
2016,07,08,09,37,14.50
2016,07,08,09,38,16.10
2016,07,08,09,39,17.70
2016,07,08,09,40,19.30
2016,07,08,09,41,30.60
2016,07,08,09,42,14.50
2016,07,08,09,43,12.90
2016,07,08,09,44,11.30
2016,07,08,09,45,11.30
2016,07,08,09,46,14.50
2016,07,08,09,47,12.90
2016,07,08,09,48,12.90
2016,07,08,09,49,17.70
2016,07,08,09,50,14.50
2016,07,08,09,51,12.90
2016,07,08,09,52,14.50
2016,07,08,09,53,11.30
2016,07,08,09,54,11.30
2016,07,08,09,55,8.10
2016,07,08,09,56,9.60
2016,07,08,09,57,12.90
2016,07,08,09,58,12.90
2016,07,08,09,59,14.50
2016,07,08,10,00,12.90
2016,07,08,10,01,12.90
2016,07,08,10,02,17.70
2016,07,08,10,03,19.30
2016,07,08,10,04,12.90
2016,07,08,10,05,19.30
2016,07,08,10,06,14.50
2016,07,08,10,07,16.10
2016,07,08,10,08,12.90
2016,07,08,10,09,12.90
2016,07,08,10,10,9.60
2016,07,08,10,11,8.10
2016,07,08,10,12,14.50
2016,07,08,10,13,14.50
2016,07,08,10,14,14.50
2016,07,08,10,15,11.30
2016,07,08,10,16,14.50
2016,07,08,10,17,14.50
2016,07,08,10,18,8.10
2016,07,08,10,19,11.30
2016,07,08,10,20,14.50
2016,07,08,10,21,12.90
2016,07,08,10,22,17.70
2016,07,08,10,23,16.10
2016,07,08,10,24,20.90
2016,07,08,10,25,12.90
2016,07,08,10,26,19.30
2016,07,08,10,27,14.50
2016,07,08,10,28,12.90
2016,07,08,10,29,12.90
2016,07,08,10,30,16.10
2016,07,08,10,31,16.10
2016,07,08,10,32,9.60
2016,07,08,10,33,12.90
2016,07,08,10,34,16.10
2016,07,08,10,35,12.90
2016,07,08,10,36,12.90
2016,07,08,10,37,14.50
2016,07,08,10,38,12.90
2016,07,08,10,39,9.60
2016,07,08,10,40,8.10
2016,07,08,10,41,12.90
2016,07,08,10,42,16.10
2016,07,08,10,43,12.90
2016,07,08,10,44,20.90
2016,07,08,10,45,17.70
2016,07,08,10,46,14.50
2016,07,08,10,47,16.10
2016,07,08,10,48,16.10
2016,07,08,10,49,16.10
2016,07,08,10,50,8.10
2016,07,08,10,51,16.10
2016,07,08,10,52,14.50
2016,07,08,10,53,14.50
2016,07,08,10,54,16.10
2016,07,08,10,55,14.50
2016,07,08,10,56,12.90
2016,07,08,10,57,11.30
2016,07,08,10,58,11.30
2016,07,08,10,59,14.50
2016,07,08,11,00,12.90
2016,07,08,11,01,17.70
2016,07,08,11,02,16.10
2016,07,08,11,03,16.10
2016,07,08,11,04,17.70
2016,07,08,11,05,16.10
2016,07,08,11,06,9.60
2016,07,08,11,07,8.10
2016,07,08,11,08,9.60
2016,07,08,11,09,12.90
2016,07,08,11,10,8.10
2016,07,08,11,11,11.30
2016,07,08,11,12,11.30
2016,07,08,11,13,11.30
2016,07,08,11,14,8.10
2016,07,08,11,15,17.70
2016,07,08,11,16,9.60
2016,07,08,11,17,11.30
2016,07,08,11,18,14.50
2016,07,08,11,19,12.90
2016,07,08,11,20,17.70
2016,07,08,11,21,11.30
2016,07,08,11,22,16.10
2016,07,08,11,23,14.50
2016,07,08,11,24,12.90
2016,07,08,11,25,16.10
2016,07,08,11,26,17.70
2016,07,08,11,27,19.30
2016,07,08,11,28,14.50
2016,07,08,11,29,9.60
2016,07,08,11,30,14.50
2016,07,08,11,31,14.50
2016,07,08,11,32,14.50
2016,07,08,11,33,12.90
2016,07,08,11,34,14.50
2016,07,08,11,35,17.70
2016,07,08,11,36,11.30
2016,07,08,11,37,11.30
2016,07,08,11,38,8.10
2016,07,08,11,39,19.30
2016,07,08,11,40,17.70
2016,07,08,11,41,20.90
2016,07,08,11,42,11.30
2016,07,08,11,43,12.90
2016,07,08,11,44,14.50
2016,07,08,11,45,16.10
2016,07,08,11,46,17.70
2016,07,08,11,47,17.70
2016,07,08,11,48,20.90
2016,07,08,11,49,17.70
2016,07,08,11,50,16.10
2016,07,08,11,51,17.70
2016,07,08,11,52,12.90
2016,07,08,11,53,12.90
2016,07,08,11,54,11.30
2016,07,08,11,55,14.50
2016,07,08,11,56,11.30
2016,07,08,11,57,8.10
2016,07,08,11,58,16.10
2016,07,08,11,59,12.90
2016,07,08,12,00,14.50
2016,07,08,12,01,20.90
2016,07,08,12,02,12.90
2016,07,08,12,03,12.90
2016,07,08,12,04,20.90
2016,07,08,12,05,16.10
2016,07,08,12,06,11.30
2016,07,08,12,07,11.30
2016,07,08,12,08,16.10
2016,07,08,12,09,14.50
2016,07,08,12,10,16.10
2016,07,08,12,11,12.90
2016,07,08,12,12,14.50
2016,07,08,12,13,12.90
2016,07,08,12,14,12.90
2016,07,08,12,15,6.40
2016,07,08,12,16,8.10
2016,07,08,12,17,11.30
2016,07,08,12,18,11.30
2016,07,08,12,19,14.50
2016,07,08,12,20,11.30
2016,07,08,12,21,6.40
2016,07,08,12,22,8.10
2016,07,08,12,23,14.50
2016,07,08,12,24,16.10
2016,07,08,12,25,14.50
2016,07,08,12,26,14.50
2016,07,08,12,27,11.30
2016,07,08,12,28,11.30
2016,07,08,12,29,12.90
2016,07,08,12,30,11.30
2016,07,08,12,31,9.60
2016,07,08,12,32,14.50
2016,07,08,12,33,16.10
2016,07,08,12,34,12.90
2016,07,08,12,35,14.50
2016,07,08,12,36,12.90
2016,07,08,12,37,11.30
2016,07,08,12,38,14.50
2016,07,08,12,39,14.50
2016,07,08,12,40,16.10
2016,07,08,12,41,16.10
2016,07,08,12,42,16.10
2016,07,08,12,43,20.90
2016,07,08,12,44,17.70
2016,07,08,12,45,14.50
2016,07,08,12,46,12.90
2016,07,08,12,47,14.50
2016,07,08,12,48,11.30
2016,07,08,12,49,17.70
2016,07,08,12,50,16.10
2016,07,08,12,51,11.30
2016,07,08,12,52,14.50
2016,07,08,12,53,12.90
2016,07,08,12,54,8.10
2016,07,08,12,55,8.10
2016,07,08,12,56,14.50
2016,07,08,12,57,16.10
2016,07,08,12,58,19.30
2016,07,08,12,59,17.70
2016,07,08,13,00,19.30
2016,07,08,13,01,22.50
2016,07,08,13,02,19.30
2016,07,08,13,03,17.70
2016,07,08,13,04,24.20
2016,07,08,13,05,19.30
2016,07,08,13,06,25.70
2016,07,08,13,07,25.70
2016,07,08,13,08,24.20
2016,07,08,13,09,24.20
2016,07,08,13,10,20.90
2016,07,08,13,11,20.90
2016,07,08,13,12,22.50
2016,07,08,13,13,17.70
2016,07,08,13,14,24.20
2016,07,08,13,15,22.50
2016,07,08,13,16,19.30
2016,07,08,13,17,17.70
2016,07,08,13,18,12.90
2016,07,08,13,19,12.90
2016,07,08,13,20,14.50
2016,07,08,13,21,9.60
2016,07,08,13,22,14.50
2016,07,08,13,23,8.10
2016,07,08,13,24,3.20
2016,07,08,13,25,8.10
2016,07,08,13,26,12.90
2016,07,08,13,27,3.20
2016,07,08,13,29,1.60
2016,07,08,13,30,3.20
2016,07,08,13,31,3.20
2016,07,08,13,32,4.80
2016,07,08,13,33,4.80
2016,07,08,13,34,1.60
2016,07,08,13,36,1.60
2016,07,08,13,37,1.60
2016,07,08,13,38,1.60
2016,07,08,13,39,1.60
2016,07,08,13,40,1.60
2016,07,08,13,41,1.60
2016,07,08,13,42,4.80
2016,07,08,13,43,4.80
2016,07,08,13,44,9.60
2016,07,08,13,45,11.30
2016,07,08,13,46,8.10
2016,07,08,13,47,11.30
2016,07,08,13,48,8.10
2016,07,08,13,49,11.30
2016,07,08,13,50,20.90
2016,07,08,13,51,11.30
2016,07,08,13,52,14.50
2016,07,08,13,53,14.50
2016,07,08,13,54,17.70
2016,07,08,13,55,8.10
2016,07,08,13,56,11.30
2016,07,08,13,57,16.10
2016,07,08,13,58,19.30
2016,07,08,13,59,29.00
2016,07,08,14,00,29.00
2016,07,08,14,01,24.20
2016,07,08,14,02,27.40
2016,07,08,14,03,19.30
2016,07,08,14,04,14.50
2016,07,08,14,05,14.50
2016,07,08,14,06,20.90
2016,07,08,14,07,19.30
2016,07,08,14,08,24.20
2016,07,08,14,09,29.00
2016,07,08,14,10,29.00
2016,07,08,14,11,24.20
2016,07,08,14,12,20.90
2016,07,08,14,13,19.30
2016,07,08,14,14,16.10
2016,07,08,14,15,17.70
2016,07,08,14,16,16.10
2016,07,08,14,17,16.10
2016,07,08,14,18,14.50
2016,07,08,14,19,19.30
2016,07,08,14,20,17.70
2016,07,08,14,21,12.90
2016,07,08,14,22,16.10
2016,07,08,14,23,12.90
2016,07,08,14,24,24.20
2016,07,08,14,25,16.10
2016,07,08,14,26,11.30
2016,07,08,14,27,12.90
2016,07,08,14,28,11.30
2016,07,08,14,29,14.50
2016,07,08,14,30,19.30
2016,07,08,14,31,17.70
2016,07,08,14,32,17.70
2016,07,08,14,33,19.30
2016,07,08,14,34,14.50
2016,07,08,14,35,12.90
2016,07,08,14,36,16.10
2016,07,08,14,37,16.10
2016,07,08,14,38,17.70
2016,07,08,14,39,16.10
2016,07,08,14,40,14.50
2016,07,08,14,41,16.10
2016,07,08,14,42,14.50
2016,07,08,14,43,12.90
2016,07,08,14,44,8.10
2016,07,08,14,45,6.40
2016,07,08,14,46,6.40
2016,07,08,14,47,6.40
2016,07,08,14,48,24.20
2016,07,08,14,49,19.30
2016,07,08,14,50,9.60
2016,07,08,14,51,11.30
2016,07,08,14,52,11.30
2016,07,08,14,53,8.10
2016,07,08,14,54,4.80
2016,07,08,14,55,1.60
2016,07,08,14,56,3.20
2016,07,08,14,57,6.40
2016,07,08,14,58,9.60
2016,07,08,14,59,9.60
2016,07,08,15,00,11.30
2016,07,08,15,01,16.10
2016,07,08,15,02,16.10
2016,07,08,15,03,4.80
2016,07,08,15,04,4.80
2016,07,08,15,05,3.20
2016,07,08,15,06,3.20
2016,07,08,15,07,1.60
2016,07,08,15,08,3.20
2016,07,08,15,09,3.20
2016,07,08,15,10,3.20
2016,07,08,15,11,3.20
2016,07,08,15,12,3.20
2016,07,08,15,13,1.60
2016,07,08,15,14,4.80
2016,07,08,15,15,8.10
2016,07,08,15,16,6.40
2016,07,08,15,17,3.20
2016,07,08,15,18,1.60
2016,07,08,15,19,1.60
2016,07,08,15,20,4.80
2016,07,08,15,21,6.40
2016,07,08,15,22,3.20
2016,07,08,15,23,8.10
2016,07,08,15,24,11.30
2016,07,08,15,25,8.10
2016,07,08,15,26,8.10
2016,07,08,15,27,6.40
2016,07,08,15,28,4.80
2016,07,08,15,29,8.10
2016,07,08,15,30,6.40
2016,07,08,15,31,6.40
2016,07,08,15,32,4.80
2016,07,08,15,34,1.60
2016,07,08,15,37,1.60
2016,07,08,15,38,1.60
2016,07,08,15,39,6.40
2016,07,08,15,40,6.40
2016,07,08,15,41,8.10
2016,07,08,15,42,6.40
2016,07,08,15,43,6.40
2016,07,08,15,44,4.80
2016,07,08,15,45,4.80
2016,07,08,15,46,4.80
2016,07,08,15,47,1.60
2016,07,08,15,48,4.80
2016,07,08,15,49,3.20
2016,07,08,15,50,3.20
2016,07,08,15,51,3.20
2016,07,08,15,52,3.20
2016,07,08,15,53,4.80
2016,07,08,15,54,4.80
2016,07,08,15,55,6.40
2016,07,08,15,56,4.80
2016,07,08,15,57,6.40
2016,07,08,15,58,6.40
2016,07,08,15,59,8.10
2016,07,08,16,00,6.40
2016,07,08,16,01,6.40
2016,07,08,16,02,4.80
2016,07,08,16,03,4.80
2016,07,08,16,04,6.40
2016,07,08,16,05,4.80
2016,07,08,16,06,4.80
2016,07,08,16,07,4.80
2016,07,08,16,08,3.20
2016,07,08,16,09,6.40
2016,07,08,16,10,4.80
2016,07,08,16,11,8.10
2016,07,08,16,12,6.40
2016,07,08,16,13,8.10
2016,07,08,16,14,6.40
2016,07,08,16,15,8.10
2016,07,08,16,16,9.60
2016,07,08,16,17,8.10
2016,07,08,16,18,6.40
2016,07,08,16,19,6.40
2016,07,08,16,20,3.20
2016,07,08,16,21,3.20
2016,07,08,16,22,3.20
2016,07,08,16,23,1.60
2016,07,08,16,24,3.20
2016,07,08,16,25,4.80
2016,07,08,16,26,4.80
2016,07,08,16,27,4.80
2016,07,08,16,28,3.20
2016,07,08,16,29,3.20
2016,07,08,16,30,3.20
2016,07,08,16,31,3.20
2016,07,08,16,32,3.20
2016,07,08,16,33,4.80
2016,07,08,16,34,4.80
2016,07,08,16,35,4.80
2016,07,08,16,36,6.40
2016,07,08,16,37,6.40
2016,07,08,16,38,4.80
2016,07,08,16,39,6.40
2016,07,08,16,40,8.10
2016,07,08,16,41,6.40
2016,07,08,16,42,4.80
2016,07,08,16,43,4.80
2016,07,08,16,44,4.80
2016,07,08,16,45,6.40
2016,07,08,16,46,8.10
2016,07,08,16,47,4.80
2016,07,08,16,48,3.20
2016,07,08,16,49,4.80
2016,07,08,16,50,4.80
2016,07,08,16,51,4.80
2016,07,08,16,52,8.10
2016,07,08,16,53,6.40
2016,07,08,16,54,11.30
2016,07,08,16,55,8.10
2016,07,08,16,56,9.60
2016,07,08,16,57,11.30
2016,07,08,16,58,11.30
2016,07,08,16,59,12.90
2016,07,08,17,00,9.60
2016,07,08,17,01,8.10
2016,07,08,17,02,4.80
2016,07,08,17,03,11.30
2016,07,08,17,04,8.10
2016,07,08,17,05,12.90
2016,07,08,17,06,9.60
2016,07,08,17,07,8.10
2016,07,08,17,08,11.30
2016,07,08,17,09,17.70
2016,07,08,17,10,14.50
2016,07,08,17,11,14.50
2016,07,08,17,12,12.90
2016,07,08,17,13,8.10
2016,07,08,17,14,3.20
2016,07,08,17,15,4.80
2016,07,08,17,16,4.80
2016,07,08,17,17,4.80
2016,07,08,17,18,3.20
2016,07,08,17,19,3.20
2016,07,08,17,20,1.60
2016,07,08,17,26,1.60
2016,07,08,17,27,1.60
2016,07,08,17,28,4.80
2016,07,08,17,29,4.80
2016,07,08,17,30,4.80
2016,07,08,17,31,4.80
2016,07,08,17,32,3.20
2016,07,08,17,33,6.40
2016,07,08,17,34,8.10
2016,07,08,17,35,1.60
2016,07,08,17,36,3.20
2016,07,08,17,37,1.60
2016,07,08,17,38,1.60
2016,07,08,17,39,1.60
2016,07,08,17,40,1.60
2016,07,08,17,42,1.60
2016,07,08,17,49,1.60
2016,07,08,17,50,1.60
2016,07,08,17,56,1.60
2016,07,08,17,57,1.60
2016,07,08,17,58,1.60
2016,07,08,18,01,1.60
2016,07,08,18,02,3.20
2016,07,08,18,03,3.20
2016,07,08,18,04,4.80
2016,07,08,18,05,4.80
2016,07,08,18,06,4.80
2016,07,08,18,07,4.80
2016,07,08,18,08,4.80
2016,07,08,18,09,3.20
2016,07,08,18,10,1.60
2016,07,08,18,12,1.60
2016,07,08,18,13,1.60
2016,07,08,18,14,1.60
2016,07,08,18,15,1.60
2016,07,08,18,16,1.60
2016,07,08,18,17,3.20
2016,07,08,18,18,1.60
2016,07,08,18,19,1.60
2016,07,08,18,20,1.60
2016,07,08,18,21,1.60
2016,07,08,18,22,1.60
2016,07,08,18,28,1.60
2016,07,08,18,29,1.60
2016,07,08,18,30,1.60
2016,07,08,18,35,1.60
2016,07,08,18,36,1.60
2016,07,08,18,37,1.60
2016,07,08,18,39,1.60
2016,07,08,19,26,1.60
2016,07,08,19,27,1.60
2016,07,08,19,38,1.60
2016,07,08,19,39,3.20
2016,07,08,19,40,3.20
2016,07,08,19,42,1.60
2016,07,08,19,51,3.20
2016,07,08,19,52,1.60
2016,07,08,19,53,1.60
2016,07,08,19,54,1.60
2016,07,08,19,55,1.60
2016,07,08,20,19,3.20
2016,07,08,20,20,3.20
2016,07,08,20,21,1.60
2016,07,08,20,22,1.60
2016,07,08,20,23,1.60
2016,07,08,20,34,1.60
2016,07,08,20,35,1.60
2016,07,08,20,36,1.60
2016,07,08,20,37,1.60
2016,07,08,20,38,3.20
2016,07,08,20,39,3.20
2016,07,08,20,40,3.20
2016,07,08,20,41,1.60
2016,07,08,20,42,3.20
2016,07,08,20,43,3.20